Regional Weather Roundup
Issued by NWS

Home | Current Version | Previous Version | Graphics & Text | Print | Product List | Glossary On
Versions: 1 2 3 4 5 6 7 8 9 10 11 12 13 14 15 16 17 18 19 20 21 22 23 24 25 26 27 28 29 30 31 32 33 34 35 36 37 38 39 40 41 42 43 44 45 46 47 48 49 50
168
ASUS43 KMPX 222210
RWRMN
WEATHER ROUNDUP FOR MINNESOTA
NATIONAL WEATHER SERVICE TWIN CITIES/CHANHASSEN MN
400 PM CST WED NOV 22 2017


NOTE: "FAIR" INDICATES FEW OR NO CLOUDS BELOW 12,000 FEET WITH NO
SIGNIFICANT WEATHER AND/OR OBSTRUCTIONS TO VISIBILITY. N/A MEANS
CURRENT SKY AND/OR WEATHER CONDITIONS ARE NOT AVAILABLE.

MNZ060>063-068>070-222300-
   Twin Cities Metro

CITY           SKY/WX    TMP DP  RH WIND       PRES   REMARKS
TWIN CITIES    CLOUDY    29  14  53 S8        30.11F WCI  21
ST PAUL        CLOUDY    29  14  53 S8        30.13F WCI  21
CRYSTAL        CLOUDY    28  11  48 S10       30.09F WCI  19
BLAINE         CLOUDY    28  16  59 S12       30.10F WCI  18
LAKEVILLE      CLOUDY    28  16  59 S7        30.10F WCI  21
EDEN PRAIRIE   CLOUDY    29  13  51 S12       30.09F WCI  19
SOUTH ST PAUL  PTCLDY    30  14  51 S3        30.11F
LAKE ELMO      FAIR      28  16  59 S8        30.12F WCI  20
$$
MNZ001>005-007-008-013>017-022>024-027-028-222300-
   Northwest Minnesota

CITY           SKY/WX    TMP DP  RH WIND       PRES   REMARKS
BEMIDJI        FLURRIES  20  17  86 SE10      29.93F WCI   9
HALLOCK        CLOUDY    23  19  86 SE7       29.95R WCI  15
ROSEAU         CLOUDY    21  18  86 S5        29.95R WCI  15
WARROAD        CLOUDY    21  18  86 S3        29.94F
THIEF RVR FALL CLOUDY    23  16  74 SE9       29.93R WCI  13
CROOKSTON      CLOUDY    28  16  59 S13       29.92S WCI  18
FOSSTON        CLOUDY    21  16  79 S8        29.91F WCI  12
DETROIT LAKES  CLOUDY    28  16  59 S10       29.92S WCI  19
MOORHEAD       CLOUDY    30  14  51 S17G23    29.92S WCI  18
PARK RAPIDS    FLURRIES  21  16  81 SE13      29.94F WCI   9
MAHNOMEN       CLOUDY    26  15  64 S8        29.90S WCI  17
$$
MNZ006-009>011-018-025>026-222300-
   North Central Minnesota

CITY           SKY/WX    TMP DP  RH WIND       PRES   REMARKS
BAUDETTE       CLOUDY    19  14  81 S8        29.95F WCI   9
FLAG ISLAND    CLOUDY    19  16  86 S9        29.94S WCI   9
INTL FALLS     CLOUDY    19  14  81 VRB5      29.98S WCI  12
WASKISH        LGT SNOW  19  18  93 SE5       29.96S WCI  13
BIG FORK       FLURRIES  21  16  79 S9        29.97F WCI  11
LONGVILLE      LGT SNOW  19  18  93 SE10      29.98F WCI   8
GRAND RAPIDS   LGT SNOW  19  16  86 S9        30.00F FOG     WCI   9
CRANE LAKE     CLOUDY    18  14  86 S5        30.03S FOG     WCI  11
ORR            CLOUDY    19  12  73 S5        29.96F WCI  13
COOK           LGT SNOW  19  16  86 S6        29.99F WCI  11
WALKER         FLURRIES  19  15  85 SE8       29.95F WCI   9
$$
MNZ012-019>021-037-222300-
   Northeast Minnesota

CITY           SKY/WX    TMP DP  RH WIND       PRES   REMARKS
DULUTH         FLURRIES  20  14  77 SW9       30.03F WCI   9
ELY            FLURRIES  19  12  73 SW6       30.00F WCI  11
HIBBING        LGT SNOW  19  15  84 S8        29.99F FOG     WCI   9
EVELETH        LGT SNOW  20  13  76 SW10      30.00F WCI   9
DULUTH HARBOR  CLOUDY    27  16  63 SW14      30.10F WCI  15
TWO HARBORS    PTCLDY    27  16  63 SW14      30.03F WCI  15
SILVER BAY     FLURRIES  23  16  74 SW6       30.03S WCI  16
GRAND MARAIS     N/A     28  20  71 W14       30.06F WCI  17
G MARAIS ARPRT CLOUDY    18   9  68 S7        29.98F WCI   8
$$
MNZ029>031-032-039>041-046>048-054>057-064-222300-
   West Central Minnesota

CITY           SKY/WX    TMP DP  RH WIND       PRES   REMARKS
FERGUS FALLS   CLOUDY    28  16  59 SE13      29.96S WCI  18
WHEATON        CLEAR     36  16  44 SE13      29.93R
MORRIS         CLOUDY    34  16  47 SE16      29.92F WCI  23
ALEXANDRIA     CLOUDY    27  15  61 SE15      29.96F WCI  15
ELBOW LAKE     CLOUDY    29  16  57 E16       29.92F HAZE    WCI  17
WADENA         MIX PCPN  25  14  63 SE15      29.95F WCI  12
GLENWOOD       CLOUDY    28  16  59 S14       29.96F WCI  17
APPLETON       CLOUDY    37  14  38 S13G20    29.93F
BENSON         CLOUDY    34  14  44 S15       29.96F WCI  24
ORTONVILLE     CLOUDY    37  18  44 N13       29.89F
MADISON        CLOUDY    39  19  45 S14       29.93F
WILLMAR        MOCLDY    32  18  55 SE12      30.01S WCI  23
$$
MNZ033>034-036-042>043-049>051-058-059-222300-
   Central Minnesota

CITY           SKY/WX    TMP DP  RH WIND       PRES   REMARKS
ST CLOUD       CLOUDY    26  14  60 SE15      30.02F WCI  14
SAUK CENTRE    CLOUDY    27  14  58 SE16      29.99S WCI  15
PAYNESVILLE    CLOUDY    29  17  60 S12       30.01F WCI  19
AITKIN         MIX PCPN  19  16  86 SE9       30.00F WCI   9
PINE RIVER     LGT SNOW  18  16  93 SE8       30.01F WCI   7
BRAINERD       LGT SNOW  21  17  84 S7        30.01F FOG     WCI  12
STAPLES        CLOUDY    23  12  63 SE9       29.97F WCI  13
LITTLE FALLS   CLOUDY    27   9  46 S9        30.03S WCI  17
LITCHFIELD     CLOUDY    30  16  55 S9        30.02F WCI  22
BUFFALO        CLOUDY    27  13  55 SE9       30.08F WCI  18
MAPLE LAKE     CLOUDY    28  17  64 SE10      30.05F WCI  19
HUTCHINSON     CLOUDY    31  17  54 SE12      30.04F WCI  22
$$
MNZ037-044-045-052-053-222300-
   East Central Minnesota

CITY           SKY/WX    TMP DP  RH WIND       PRES   REMARKS
PRINCETON      PTCLDY    27  14  59 SE8       30.06F WCI  18
MORA           LGT SNOW  21  16  79 S8        30.09F WCI  12
CAMBRIDGE      PTCLDY    27  16  63 SE5       30.09F WCI  21
RUSH CITY      CLOUDY    23  18  80 S9        30.10F WCI  13
MOOSE LAKE     LGT SNOW  21  18  86 S3        30.05F
HINCKLEY       LGT SNOW  23  21  93 SE6       30.08F WCI  16
CLOQUET        LGT SNOW  21  14  73 S8        30.04F WCI  12
MCGREGOR       CLOUDY    23  19  86 SE9       30.03F WCI  13
$$
MNZ071>073-080-081-089-090-097-098-222300-
   Southwest Minnesota

CITY           SKY/WX    TMP DP  RH WIND       PRES   REMARKS
MONTEVIDEO     CLOUDY    36  16  44 SW9G18    29.97F
GRANITE FALLS  CLOUDY    37  17  44 S13       30.00S
CANBY          CLOUDY    38  19  44 S13G21    29.95F
MARSHALL       CLOUDY    36  15  42 SW20      29.97S
REDWOOD FALLS  CLOUDY    36  13  38 S17       30.00F
OLIVIA         CLOUDY    34  18  51 S10G17    30.00R WCI  26
PIPESTONE      CLOUDY    32  16  51 SW17G29   29.97F WCI  21
WINDOM           N/A     34  16  47 S23       30.01F WCI  22
WORTHINGTON    CLOUDY    33  14  45 S22       30.00F WCI  21
JACKSON        CLOUDY    34  14  44 S20G25    30.03F WCI  22
SLAYTON        CLOUDY    33  10  38 S22G28    29.99F WCI  20
$$
MNZ065>067-074>077-082>085-091>093-222300-
   South Central Minnesota

CITY           SKY/WX    TMP DP  RH WIND       PRES   REMARKS
MANKATO        CLOUDY    31  16  54 S14G20    30.07  WCI  21
NEW ULM        CLOUDY    34  12  40 S8G17     30.02F WCI  27
ST JAMES       CLOUDY    36  16  44 S14G23    30.04F
GLENCOE        CLOUDY    31  16  52 SE10      30.06F WCI  23
FARIBAULT      CLOUDY    30  16  55 S9        30.10F WCI  22
OWATONNA       CLOUDY    30  16  55 S12       30.09F WCI  21
WASECA         CLOUDY    32  18  55 S15       30.10F WCI  22
ALBERT LEA     CLOUDY    30  12  47 S12       30.08F WCI  21
$$
MNZ078>079-086>088-094>096-222300-
   Southeast Minnesota

CITY           SKY/WX    TMP DP  RH WIND       PRES   REMARKS
ROCHESTER      CLOUDY    29  16  58 S15       30.12F WCI  18
RED WING       CLOUDY    30  10  43 S7        30.13F WCI  23
STANTON        CLOUDY    31  15  51 S7        30.12S WCI  24
DODGE CENTER   CLOUDY    28  12  50 S15       30.10F WCI  17
WINONA           N/A     32  16  51 S5        30.18F WCI  27
AUSTIN         PTCLDY    30  12  47 SW12      30.11F WCI  21
PRESTON        CLOUDY    28  14  54 S10       30.14F WCI  19
$$
ABBREVIATIONS USED IN REMARKS
   TC - TEMPERATURES IN CELSIUS
  WCI - WIND CHILL INDEX
   HX - HEAT INDEX
  VSB - VISIBILITY
$$




USA.gov is the U.S. government's official web portal to all federal, state and local government web resources and services.